Regional Weather Roundup
Issued by NWS

Home | Current Version | Previous Version | Graphics & Text | Print | Product List | Glossary On
Versions: 1 2 3 4 5 6 7 8 9 10 11 12 13 14 15 16 17 18 19 20 21 22 23 24 25 26 27 28 29 30 31 32 33 34 35 36 37 38 39 40 41 42 43 44 45 46 47 48 49 50
846
ASUS44 KLIX 010205
RWRLA
LOUISIANA WEATHER ROUNDUP
NATIONAL WEATHER SERVICE NEW ORLEANS LA
900 PM CDT THU JUL 31 2014

NOTE: "FAIR" INDICATES FEW OR NO CLOUDS BELOW 12,000 FEET WITH NO
      SIGNIFICANT WEATHER AND/OR OBSTRUCTIONS TO VISIBILITY.
      SKY/WX - SKY CONDITION AND SIGNIFICANT WEATHER.
      TMP - AIR TEMPERATURE.    DP   - DEWPOINT TEMPERATURE.
      RH  - RELATIVE HUMIDITY.  PRES - PRESSURE.
      HX  - HEAT INDEX.         WCI  - WIND CHILL INDEX.

*  THESE STATIONS ARE NOT NWS OR FAA STATIONS AND ARE NOT UNDER
   NWS QUALITY CONTROL.

LAZ040-048-061>063-065-066-069-010300-
SOUTHEAST LOUISIANA

CITY           SKY/WX    TMP DP  RH WIND       PRES   REMARKS
N.O. AUDUBON     N/A     85  70  60 MISG        N/A
N.O. INTL ARPT MOCLDY    82  62  50 E5        29.98S
N.O. LAKEFRONT PTCLDY    82  69  64 SE6       29.99S
N.O. DOWNTOWN* FAIR      82  66  57 SE3       29.99S
SLIDELL        PTCLDY    75  69  81 CALM      29.99S
BATON ROUGE    CLOUDY    78  68  71 NE7       29.97F
BOOTHVILLE     CLEAR     80  66  62 E3        30.00S
BELLE CHASSE   MOCLDY    77  70  79 CALM      29.98S
BOGALUSA*      FAIR      76  67  71 NE5       30.02S
GALLIANO*      NOT AVBL
NEW ROADS*     FAIR      78  65  64 E6        29.97S
GONZALES*      MOCLDY    80  72  75 CALM      29.97S
HAMMOND*       PTCLDY    77  66  69 CALM      30.01S
HOUMA*         PTCLDY    78  68  73 CALM      29.98S
PORT FOURCHON* CLEAR     82  68  61 SE6       30.00F

$$

LAZ041-044-053-054-010300-
SOUTHWEST LOUISIANA

CITY           SKY/WX    TMP DP  RH WIND       PRES   REMARKS
LAKE CHARLES   CLOUDY    81  75  82 SE6       29.93F
LAFAYETTE      CLOUDY    82  72  71 CALM      29.96S
PATTERSON      PTCLDY    79  73  83 S6        30.01S
SALT POINT       N/A     84  74  71 CALM      29.96S
NEW IBERIA     MOCLDY    80  72  76 CALM      29.97S
CHENAULT AIRPK CLEAR     81  73  78 SE6       29.94F

$$

LAZ027-028-010300-
CENTRAL LOUISIANA

CITY           SKY/WX    TMP DP  RH WIND       PRES   REMARKS
FORT POLK      CLOUDY    78  71  79 E8        29.93F
ALEXANDRIA INT CLOUDY    79  68  69 E10       29.93F
ALEXANDRIA     CLOUDY    77  71  82 E3        29.96F

$$

LAZ001-002-010300-
NORTHWEST LOUISIANA

CITY           SKY/WX    TMP DP  RH WIND       PRES   REMARKS
SHREVEPORT     RAIN      72  70  94 E7        29.94S FOG
BARKSDALE AFB  LGT RAIN  71  69  94 E7        29.96S
DTN SHREVEPORT RAIN      70  68  93 NE6       29.95S FOG

$$

LAZ014-016-010300-
NORTHEAST LOUISIANA

CITY           SKY/WX    TMP DP  RH WIND       PRES   REMARKS
MONROE         CLOUDY    74  68  81 CALM      30.01R
TALLULAH       CLOUDY    75  68  78 CALM      30.01S

$$




USA.gov is the U.S. government's official web portal to all federal, state and local government web resources and services.